| time (UTC) | temp C | wind direction | speed KPH | gust KPH | rain 1hr cm | rain 24hr cm | rain mn cm | humidity % | barometer mb |
| 20260508090002 | 14 | 182 | 4.8 | 11.3 | 0.00 | 0.00 | 0.00 | 70 | 1016.6 |
| 20260508084502 | 14 | 157 | 4.8 | 11.3 | 0.00 | 0.00 | 0.00 | 70 | 1016.7 |
| 20260508083002 | 13 | 165 | 3.2 | 11.3 | 0.00 | 0.00 | 0.00 | 73 | 1016.7 |
| 20260508081523 | 13 | 156 | 4.8 | 11.3 | 0.00 | 0.00 | 0.00 | 75 | 1016.6 |
| 20260508080002 | 12 | 146 | 4.8 | 11.3 | 0.00 | 0.00 | 0.00 | 77 | 1016.6 |
| 20260508074502 | 12 | 163 | 4.8 | 11.3 | 0.00 | 0.00 | 0.00 | 80 | 1016.5 |
| 20260508073002 | 12 | 281 | 3.2 | 6.4 | 0.00 | 0.00 | 0.00 | 83 | 1016.3 |
| 20260508071502 | 11 | 160 | 3.2 | 9.7 | 0.00 | 0.00 | 0.00 | 84 | 1016.4 |
| 20260508070002 | 11 | 175 | 3.2 | 9.7 | 0.00 | 0.00 | 0.00 | 86 | 1016.2 |
| 20260508064502 | 11 | 141 | 1.6 | 4.8 | 0.00 | 0.00 | 0.00 | 88 | 1016.2 |
| 20260508063002 | 10 | 109 | 1.6 | 6.4 | 0.00 | 0.00 | 0.00 | 89 | 1016.1 |
| 20260508061502 | 10 | 102 | 3.2 | 6.4 | 0.00 | 0.00 | 0.00 | 90 | 1016.0 |
| 20260508060002 | 9 | 48 | 1.6 | 4.8 | 0.00 | 0.00 | 0.00 | 90 | 1015.8 |
| 20260508054502 | 8 | 44 | 1.6 | 4.8 | 0.00 | 0.00 | 0.00 | 91 | 1015.7 |
| 20260508053002 | 8 | 44 | 0.0 | 3.2 | 0.00 | 0.00 | 0.00 | 91 | 1015.7 |
| 20260508051502 | 8 | 30 | 0.0 | 1.6 | 0.00 | 0.00 | 0.00 | 91 | 1015.7 |
| 20260508050002 | 8 | 110 | 0.0 | 1.6 | 0.00 | 0.00 | 0.00 | 91 | 1015.5 |
| 20260508044502 | 8 | 168 | 1.6 | 6.4 | 0.00 | 0.00 | 0.00 | 91 | 1015.5 |
| 20260508043002 | 8 | 168 | 0.0 | 3.2 | 0.00 | 0.00 | 0.00 | 91 | 1015.5 |
| 20260508041502 | 8 | 163 | 1.6 | 3.2 | 0.00 | 0.00 | 0.00 | 90 | 1015.4 |
| 20260508040002 | 8 | 0 | 0.0 | 1.6 | 0.00 | 0.00 | 0.00 | 90 | 1015.4 |
| 20260508034502 | 8 | 0 | 0.0 | 0.0 | 0.00 | 0.00 | 0.00 | 90 | 1015.3 |
| 20260508033002 | 8 | 164 | 0.0 | 3.2 | 0.00 | 0.00 | 0.00 | 90 | 1015.4 |
| 20260508031523 | 7 | 163 | 0.0 | 3.2 | 0.00 | 0.00 | 0.00 | 90 | 1015.3 |
| 20260508030002 | 7 | 163 | 1.6 | 3.2 | 0.00 | 0.00 | 0.00 | 90 | 1015.4 |
| 20260508024502 | 7 | 0 | 0.0 | 3.2 | 0.00 | 0.00 | 0.00 | 90 | 1015.3 |
| 20260508023002 | 7 | 163 | 0.0 | 3.2 | 0.00 | 0.00 | 0.00 | 89 | 1015.4 |
| 20260508021502 | 7 | 163 | 0.0 | 1.6 | 0.00 | 0.00 | 0.00 | 89 | 1015.2 |
| 20260508020002 | 7 | 163 | 0.0 | 1.6 | 0.00 | 0.00 | 0.00 | 88 | 1015.1 |
| 20260508014502 | 7 | 163 | 1.6 | 6.4 | 0.00 | 0.00 | 0.00 | 88 | 1015.1 |
| 20260508013023 | 8 | 163 | 1.6 | 6.4 | 0.00 | 0.00 | 0.00 | 87 | 1015.3 |
| 20260508011523 | 8 | 163 | 3.2 | 6.4 | 0.00 | 0.00 | 0.00 | 87 | 1015.4 |
| 20260508010002 | 8 | 163 | 3.2 | 6.4 | 0.00 | 0.00 | 0.00 | 86 | 1015.3 |
| 20260508004502 | 8 | 163 | 1.6 | 6.4 | 0.00 | 0.00 | 0.00 | 86 | 1015.2 |
| 20260508003002 | 9 | 163 | 3.2 | 8.0 | 0.00 | 0.00 | 0.00 | 85 | 1015.3 |
| 20260508001502 | 9 | 163 | 1.6 | 3.2 | 0.00 | 0.00 | 0.00 | 84 | 1015.4 |
| 20260508000002 | 10 | 163 | 1.6 | 6.4 | 0.00 | 0.00 | 0.00 | 83 | 1015.5 |
| 20260507234502 | 10 | 163 | 3.2 | 6.4 | 0.00 | 0.00 | 0.00 | 82 | 1015.4 |
| 20260507233002 | 10 | 163 | 3.2 | 6.4 | 0.00 | 0.00 | 0.00 | 82 | 1015.5 |
| 20260507231502 | 11 | 163 | 1.6 | 6.4 | 0.00 | 0.00 | 0.00 | 80 | 1015.4 |
| 20260507230003 | 11 | 164 | 4.8 | 9.7 | 0.00 | 0.00 | 0.00 | 81 | 1015.3 |
| 20260507224523 | 11 | 169 | 4.8 | 9.7 | 0.00 | 0.00 | 0.00 | 81 | 1015.2 |
| 20260507223023 | 11 | 172 | 3.2 | 8.0 | 0.00 | 0.00 | 0.00 | 82 | 1015.2 |
| 20260507221502 | 11 | 172 | 3.2 | 9.7 | 0.00 | 0.00 | 0.00 | 81 | 1015.1 |
| 20260507220002 | 11 | 173 | 4.8 | 9.7 | 0.00 | 0.00 | 0.00 | 81 | 1015.1 |
| 20260507214502 | 11 | 174 | 4.8 | 9.7 | 0.00 | 0.00 | 0.00 | 81 | 1015.1 |
| 20260507213002 | 11 | 175 | 3.2 | 9.7 | 0.00 | 0.00 | 0.00 | 80 | 1015.1 |
| 20260507211502 | 11 | 176 | 3.2 | 6.4 | 0.00 | 0.00 | 0.00 | 79 | 1015.2 |
| 20260507210002 | 11 | 176 | 3.2 | 6.4 | 0.00 | 0.00 | 0.00 | 78 | 1015.1 |
| 20260507204502 | 11 | 177 | 3.2 | 6.4 | 0.00 | 0.00 | 0.00 | 78 | 1014.9 |
| 20260507203023 | 11 | 177 | 3.2 | 6.4 | 0.00 | 0.00 | 0.00 | 77 | 1014.8 |
| 20260507201502 | 12 | 178 | 3.2 | 11.3 | 0.00 | 0.00 | 0.00 | 76 | 1014.7 |
| 20260507200002 | 12 | 172 | 3.2 | 11.3 | 0.00 | 0.00 | 0.00 | 76 | 1014.6 |
| 20260507194502 | 12 | 171 | 3.2 | 8.0 | 0.00 | 0.00 | 0.00 | 74 | 1014.6 |
| 20260507193024 | 12 | 150 | 3.2 | 8.0 | 0.00 | 0.00 | 0.00 | 73 | 1014.3 |
| 20260507191503 | 12 | 157 | 3.2 | 8.0 | 0.00 | 0.00 | 0.00 | 72 | 1014.4 |
| 20260507190004 | 12 | 191 | 4.8 | 12.9 | 0.00 | 0.00 | 0.00 | 70 | 1014.4 |
| 20260507184503 | 12 | 184 | 8.0 | 19.3 | 0.00 | 0.00 | 0.00 | 68 | 1014.2 |
| 20260507183023 | 13 | 185 | 8.0 | 17.7 | 0.00 | 0.00 | 0.00 | 67 | 1014.2 |
| 20260507181503 | 13 | 169 | 8.0 | 22.5 | 0.00 | 0.00 | 0.00 | 67 | 1014.2 |
| 20260507180002 | 13 | 207 | 8.0 | 12.9 | 0.00 | 0.00 | 0.00 | 68 | 1014.0 |
| 20260507174503 | 13 | 201 | 6.4 | 16.1 | 0.00 | 0.00 | 0.00 | 66 | 1013.9 |
| 20260507173003 | 14 | 209 | 6.4 | 20.9 | 0.00 | 0.00 | 0.00 | 63 | 1014.0 |
| 20260507171503 | 14 | 229 | 3.2 | 6.4 | 0.00 | 0.00 | 0.00 | 60 | 1014.0 |
| 20260507170003 | 14 | 190 | 3.2 | 6.4 | 0.00 | 0.00 | 0.00 | 60 | 1013.9 |
| 20260507164502 | 14 | 194 | 3.2 | 11.3 | 0.00 | 0.00 | 0.00 | 57 | 1014.0 |
| 20260507163003 | 15 | 190 | 4.8 | 16.1 | 0.00 | 0.00 | 0.00 | 55 | 1013.9 |
| 20260507161524 | 15 | 170 | 8.0 | 16.1 | 0.00 | 0.00 | 0.00 | 54 | 1014.0 |
| 20260507160003 | 15 | 180 | 9.7 | 20.9 | 0.00 | 0.00 | 0.00 | 53 | 1014.1 |
| 20260507154503 | 15 | 165 | 11.3 | 20.9 | 0.00 | 0.00 | 0.00 | 52 | 1014.0 |
| 20260507153023 | 16 | 180 | 9.7 | 22.5 | 0.00 | 0.00 | 0.00 | 51 | 1014.2 |
| 20260507151503 | 16 | 177 | 11.3 | 24.1 | 0.00 | 0.00 | 0.00 | 50 | 1014.2 |
| 20260507150003 | 15 | 167 | 12.9 | 24.1 | 0.00 | 0.00 | 0.00 | 50 | 1014.2 |
| 20260507144502 | 16 | 168 | 9.7 | 22.5 | 0.00 | 0.00 | 0.00 | 53 | 1014.3 |
| 20260507143003 | 15 | 169 | 11.3 | 20.9 | 0.00 | 0.00 | 0.00 | 54 | 1014.5 |
| 20260507141523 | 15 | 188 | 11.3 | 22.5 | 0.00 | 0.00 | 0.00 | 56 | 1014.7 |
| 20260507140024 | 16 | 169 | 9.7 | 20.9 | 0.00 | 0.00 | 0.00 | 56 | 1014.8 |
| 20260507134524 | 15 | 161 | 9.7 | 24.1 | 0.00 | 0.00 | 0.00 | 56 | 1014.9 |
| 20260507133002 | 16 | 170 | 9.7 | 24.1 | 0.00 | 0.00 | 0.00 | 55 | 1014.9 |
| 20260507131503 | 15 | 170 | 11.3 | 22.5 | 0.00 | 0.00 | 0.00 | 55 | 1015.0 |
| 20260507130002 | 15 | 192 | 11.3 | 24.1 | 0.00 | 0.00 | 0.00 | 58 | 1015.0 |
| 20260507124502 | 15 | 173 | 12.9 | 25.7 | 0.00 | 0.00 | 0.00 | 55 | 1015.1 |
| 20260507123003 | 15 | 157 | 9.7 | 20.9 | 0.00 | 0.00 | 0.00 | 61 | 1015.1 |
| 20260507121502 | 14 | 167 | 9.7 | 20.9 | 0.00 | 0.00 | 0.00 | 61 | 1015.2 |
| 20260507120002 | 14 | 149 | 12.9 | 20.9 | 0.00 | 0.00 | 0.00 | 63 | 1015.3 |
| 20260507114503 | 13 | 168 | 9.7 | 24.1 | 0.00 | 0.00 | 0.00 | 66 | 1015.4 |
| 20260507113024 | 13 | 174 | 9.7 | 19.3 | 0.00 | 0.00 | 0.00 | 69 | 1015.5 |
| 20260507111503 | 12 | 167 | 8.0 | 19.3 | 0.00 | 0.00 | 0.00 | 71 | 1015.6 |
| 20260507110002 | 12 | 168 | 8.0 | 19.3 | 0.00 | 0.00 | 0.00 | 74 | 1015.6 |
| 20260507104503 | 11 | 164 | 9.7 | 20.9 | 0.00 | 0.00 | 0.00 | 74 | 1015.8 |
| 20260507103002 | 11 | 148 | 12.9 | 20.9 | 0.00 | 0.00 | 0.00 | 75 | 1015.9 |
| 20260507101502 | 11 | 160 | 9.7 | 19.3 | 0.00 | 0.00 | 0.00 | 79 | 1015.8 |
| 20260507100003 | 10 | 148 | 9.7 | 17.7 | 0.00 | 0.00 | 0.00 | 80 | 1015.8 |
| 20260507094502 | 10 | 144 | 9.7 | 19.3 | 0.00 | 0.00 | 0.00 | 81 | 1015.7 |
| 20260507093003 | 10 | 150 | 11.3 | 19.3 | 0.00 | 0.00 | 0.00 | 82 | 1015.7 |
| 20260507091502 | 9 | 169 | 6.4 | 16.1 | 0.00 | 0.00 | 0.00 | 83 | 1015.8 |